TimeCST,TemperatureF,Dew PointF,Humidity,Sea Level PressureIn,VisibilityMPH,Wind Direction,Wind SpeedMPH,Gust SpeedMPH,PrecipitationIn,Events,Conditions,WindDirDegrees,DateUTC
12:07 AM,53.6,51.8,94,30.09,10.0,NNE,6.9,-,N/A,,Overcast,30,2011-12-04 06:07:00
12:53 AM,53.1,51.1,93,30.09,10.0,North,6.9,-,0.00,,Overcast,10,2011-12-04 06:53:00
1:53 AM,53.1,51.1,93,30.06,10.0,NNE,5.8,-,0.00,,Overcast,20,2011-12-04 07:53:00
2:48 AM,51.8,51.8,100,30.07,5.0,North,6.9,-,0.09,Rain,Light Rain,350,2011-12-04 08:48:00
2:53 AM,53.1,51.1,93,30.07,5.0,North,10.4,-,0.09,Rain,Light Rain,10,2011-12-04 08:53:00
2:57 AM,51.8,51.8,100,30.07,5.0,North,8.1,-,0.01,Rain,Light Rain,10,2011-12-04 08:57:00
3:53 AM,52.0,51.1,97,30.07,6.0,North,13.8,19.6,0.10,Rain,Light Rain,350,2011-12-04 09:53:00
4:00 AM,51.8,50.0,94,30.07,4.0,North,16.1,21.9,0.03,Rain,Heavy Rain,360,2011-12-04 10:00:00
4:53 AM,51.1,48.9,92,30.12,3.0,NW,8.1,-,0.11,Rain,Heavy Rain,320,2011-12-04 10:53:00
4:57 AM,51.8,48.2,88,30.12,2.0,NNW,5.8,-,0.08,Rain,Heavy Rain,340,2011-12-04 10:57:00
5:00 AM,51.8,48.2,88,30.12,1.8,North,8.1,-,0.12,Rain-Thunderstorm,Heavy Rain,350,2011-12-04 11:00:00
5:08 AM,51.8,48.2,88,30.11,3.0,North,16.1,-,0.15,Rain-Thunderstorm,Heavy Rain,360,2011-12-04 11:08:00
5:20 AM,51.8,48.2,88,30.11,7.0,North,13.8,21.9,0.16,Rain,Light Rain,350,2011-12-04 11:20:00
5:53 AM,50.0,48.0,93,30.11,4.0,North,12.7,20.7,0.28,Rain,Heavy Rain,360,2011-12-04 11:53:00
6:18 AM,50.0,48.2,94,30.12,7.0,North,8.1,-,0.03,Rain,Light Rain,10,2011-12-04 12:18:00
6:39 AM,50.0,48.2,94,30.11,10.0,NNE,10.4,-,0.03,Rain,Light Rain,20,2011-12-04 12:39:00
6:53 AM,50.0,48.0,93,30.12,10.0,NNE,8.1,-,0.03,Rain,Light Rain,20,2011-12-04 12:53:00
7:46 AM,50.0,48.2,94,30.15,5.0,North,4.6,-,0.03,Rain,Light Rain,10,2011-12-04 13:46:00
7:53 AM,50.0,48.0,93,30.14,5.0,NNE,9.2,-,0.04,Rain,Rain,20,2011-12-04 13:53:00
8:00 AM,50.0,48.2,94,30.14,3.0,NE,9.2,-,N/A,Rain,Heavy Rain,40,2011-12-04 14:00:00
8:14 AM,50.0,48.2,94,30.16,5.0,Calm,Calm,-,0.04,Rain,Light Rain,0,2011-12-04 14:14:00
8:27 AM,50.0,48.2,94,30.16,4.0,North,9.2,-,0.07,Rain,Heavy Rain,10,2011-12-04 14:27:00
8:53 AM,50.0,48.0,93,30.16,5.0,North,6.9,-,0.15,Rain,Rain,360,2011-12-04 14:53:00
9:48 AM,50.0,48.2,94,30.15,10.0,Variable,6.9,-,0.06,,Overcast,0,2011-12-04 15:48:00
9:53 AM,50.0,48.0,93,30.13,10.0,NNE,8.1,-,0.06,,Overcast,20,2011-12-04 15:53:00
10:53 AM,50.0,48.9,96,30.14,9.0,North,4.6,-,0.02,Rain,Light Rain,10,2011-12-04 16:53:00
11:19 AM,51.8,48.2,88,30.13,10.0,North,5.8,-,0.00,Rain,Light Rain,360,2011-12-04 17:19:00
11:21 AM,50.0,48.2,94,30.14,10.0,North,8.1,-,0.00,Rain,Light Rain,350,2011-12-04 17:21:00
11:28 AM,51.8,48.2,88,30.13,10.0,North,9.2,-,0.00,,Overcast,10,2011-12-04 17:28:00
11:46 AM,50.0,48.2,94,30.13,10.0,North,8.1,-,0.00,Rain,Light Rain,350,2011-12-04 17:46:00
11:53 AM,50.0,48.0,93,30.12,10.0,North,10.4,-,0.01,Rain,Light Rain,360,2011-12-04 17:53:00
12:36 PM,50.0,48.2,94,30.12,8.0,North,5.8,-,N/A,Rain,Light Rain,360,2011-12-04 18:36:00
12:43 PM,50.0,48.2,94,30.10,9.0,NNE,5.8,-,0.00,Rain,Light Rain,30,2011-12-04 18:43:00
12:51 PM,50.0,48.2,94,30.12,7.0,NE,3.5,-,0.01,Rain,Light Rain,40,2011-12-04 18:51:00
12:53 PM,50.0,48.0,93,30.11,6.0,NNE,4.6,-,0.01,Rain,Rain,30,2011-12-04 18:53:00
1:07 PM,50.0,48.2,94,30.09,1.8,North,6.9,-,0.08,Rain,Heavy Rain,350,2011-12-04 19:07:00
1:16 PM,50.0,48.2,94,30.09,3.0,NNE,8.1,-,0.09,Rain,Light Rain,30,2011-12-04 19:16:00
1:32 PM,50.0,48.2,94,30.09,9.0,North,4.6,-,0.10,Rain,Light Rain,10,2011-12-04 19:32:00
1:53 PM,50.0,48.9,96,30.07,5.0,NNE,6.9,-,0.10,Rain,Light Rain,20,2011-12-04 19:53:00
2:53 PM,48.2,48.2,100,30.07,8.0,NNW,6.9,-,N/A,Rain,Light Rain,330,2011-12-04 20:53:00
3:53 PM,46.9,45.0,93,30.04,10.0,North,12.7,-,0.01,,Overcast,360,2011-12-04 21:53:00
4:53 PM,46.0,45.0,96,30.07,5.0,North,10.4,-,0.00,Rain,Light Rain,360,2011-12-04 22:53:00
5:07 PM,46.4,44.6,93,30.09,2.0,NNW,11.5,-,0.01,Rain,Light Rain,330,2011-12-04 23:07:00
5:42 PM,44.6,44.6,100,30.07,4.0,North,9.2,-,0.02,Rain,Light Rain,10,2011-12-04 23:42:00
5:53 PM,45.0,45.0,100,30.08,8.0,North,11.5,-,0.02,Rain,Light Rain,360,2011-12-04 23:53:00
6:53 PM,44.1,43.0,96,30.07,10.0,North,8.1,-,0.02,,Overcast,10,2011-12-05 00:53:00
7:53 PM,44.1,43.0,96,30.07,7.0,North,8.1,-,0.00,Rain,Light Rain,10,2011-12-05 01:53:00
8:29 PM,44.6,42.8,93,30.08,4.0,NNW,10.4,-,0.01,Rain-Thunderstorm,Light Rain,340,2011-12-05 02:29:00
8:44 PM,44.6,42.8,93,30.06,3.0,North,10.4,-,0.02,Rain,Light Rain,10,2011-12-05 02:44:00
8:53 PM,44.1,43.0,96,30.07,3.0,North,11.5,-,0.03,Rain,Light Rain,350,2011-12-05 02:53:00
9:53 PM,44.1,44.1,100,30.07,6.0,North,11.5,-,0.09,Rain,Light Rain,350,2011-12-05 03:53:00
10:23 PM,44.6,42.8,93,30.08,3.0,NNW,12.7,20.7,0.04,Rain-Thunderstorm,Rain,340,2011-12-05 04:23:00
10:38 PM,44.6,42.8,93,30.06,4.0,North,13.8,-,0.06,Rain,Light Rain,10,2011-12-05 04:38:00
10:45 PM,44.6,42.8,93,30.06,3.0,North,17.3,24.2,0.07,Rain-Thunderstorm,Thunderstorms and Rain,360,2011-12-05 04:45:00
10:53 PM,44.1,42.1,93,30.08,4.0,North,10.4,21.9,0.08,Rain-Thunderstorm,Light Thunderstorms and Rain,350,2011-12-05 04:53:00
11:14 PM,44.6,42.8,93,30.08,4.0,North,13.8,-,0.08,Rain-Thunderstorm,Thunderstorms and Rain,350,2011-12-05 05:14:00
11:22 PM,44.6,42.8,93,30.07,-9999.0,North,11.5,-,0.16,Rain-Thunderstorm,Heavy Thunderstorms and Rain,350,2011-12-05 05:22:00
11:44 PM,42.8,42.8,100,30.04,6.0,North,13.8,-,0.19,Rain-Thunderstorm,Thunderstorms and Rain,350,2011-12-05 05:44:00
11:53 PM,43.0,43.0,100,30.07,9.0,NNW,10.4,-,0.20,Rain-Thunderstorm,Light Thunderstorms and Rain,340,2011-12-05 05:53:00